Tacoma Narrows, WA
on Sunday, December 2, 2012

Sunday
Previous Day Next Day
Daily Summary
 ActualAverageRecord
Temperature
Mean Temperature °F °F  
Max Temperature 48°F 45°F 55°F (1997)
Min Temperature 45°F 38°F 26°F (2014)
Degree Days
Heating Degree Days 18    
Moisture
Dew Point 42°F   
Average Humidity 83    
Maximum Humidity 89    
Minimum Humidity 74    
Precipitation
Precipitation 0.31 in in in ()
Wind
Wind Speed 12 mph   
Max Wind Speed 21 mph   
Max Gust Speed 33 mph   
Visibility 10 miles   
Events Rain   
Averages and records for this station are not official NWS values.
Key: T is trace of precipitation, MM is missing value
Source: NWS Daily Summary
Seasonal Weather Averages
Time(PST)TemperatureDew PointHumidity Pressure Visibility Wind DirectionWind SpeedGust SpeedPrecipitationEvents Conditions
12:53 AM 48.0°F 39.9°F 74% 29.23 in 10.0 miles SSE 6.9 mph - 0.03 in Rain Light Rain
1:53 AM 46.0°F 42.1°F 86% 29.22 in 10.0 miles SSE 4.6 mph - 0.05 in Rain Light Rain
2:53 AM 46.0°F 42.1°F 86% 29.24 in 10.0 miles SSE 8.1 mph - 0.01 in Rain Light Rain
3:53 AM 46.9°F 41.0°F 80% 29.20 in 10.0 miles South 5.8 mph - 0.02 in   Overcast
4:53 AM 46.0°F 41.0°F 83% 29.21 in 7.0 miles South 12.7 mph 18.4 mph 0.01 in Rain Rain
5:45 AM 46.4°F 42.8°F 87% 29.25 in 8.0 miles SSW 12.7 mph 31.1 mph 0.03 in Rain Light Rain
5:53 AM 46.0°F 42.1°F 86% 29.26 in 10.0 miles South 12.7 mph 25.3 mph 0.03 in Rain Light Rain
6:18 AM 46.4°F 42.8°F 87% 29.27 in 10.0 miles SSW 13.8 mph 19.6 mph 0.00 in   Scattered Clouds
6:53 AM 45.0°F 39.9°F 82% 29.30 in 10.0 miles SSW 12.7 mph 24.2 mph 0.00 in   Scattered Clouds
7:53 AM 46.0°F 41.0°F 83% 29.36 in 10.0 miles SSW 11.5 mph - N/A   Mostly Cloudy
8:53 AM 46.0°F 41.0°F 83% 29.40 in 10.0 miles SSW 17.3 mph 25.3 mph N/A   Partly Cloudy
9:53 AM 46.0°F 39.9°F 79% 29.44 in 10.0 miles South 17.3 mph 23.0 mph N/A   Overcast
10:29 AM 46.4°F 41.0°F 81% 29.46 in 10.0 miles South 18.4 mph 24.2 mph 0.02 in Rain Light Rain
10:53 AM 45.0°F 39.9°F 82% 29.48 in 10.0 miles SSW 19.6 mph 28.8 mph 0.02 in Rain Light Rain
11:53 AM 45.0°F 39.9°F 82% 29.50 in 10.0 miles South 16.1 mph - 0.00 in Rain Light Rain
12:48 PM 46.4°F 39.2°F 76% 29.52 in 10.0 miles South 20.7 mph 33.4 mph 0.00 in   Overcast
12:53 PM 46.9°F 39.9°F 77% 29.53 in 10.0 miles South 17.3 mph 28.8 mph 0.00 in   Overcast
1:34 PM 46.4°F 39.2°F 76% 29.54 in 10.0 miles South 17.3 mph 25.3 mph N/A   Overcast
1:53 PM 46.9°F 41.0°F 80% 29.56 in 10.0 miles South 17.3 mph - N/A   Mostly Cloudy
2:53 PM 48.0°F 41.0°F 77% 29.58 in 10.0 miles South 17.3 mph 24.2 mph 0.01 in   Overcast
3:53 PM 46.0°F 41.0°F 83% 29.62 in 10.0 miles South 12.7 mph 21.9 mph 0.02 in Rain Light Rain
4:53 PM 46.0°F 42.1°F 86% 29.65 in 10.0 miles South 15.0 mph 21.9 mph 0.01 in Rain Light Rain
5:46 PM 46.4°F 42.8°F 87% 29.66 in 10.0 miles South 16.1 mph 25.3 mph 0.00 in Rain Light Rain
5:53 PM 46.9°F 43.0°F 86% 29.67 in 10.0 miles South 17.3 mph 25.3 mph 0.00 in Rain Light Rain
6:22 PM 46.4°F 42.8°F 87% 29.68 in 7.0 miles South 17.3 mph 33.4 mph 0.04 in Rain Light Rain
6:53 PM 46.9°F 43.0°F 86% 29.70 in 9.0 miles South 17.3 mph 27.6 mph 0.05 in Rain Light Rain
7:53 PM 46.9°F 43.0°F 86% 29.72 in 10.0 miles South 17.3 mph 24.2 mph 0.01 in Rain Light Rain
8:49 PM 46.4°F 42.8°F 87% 29.74 in 10.0 miles South 16.1 mph 23.0 mph 0.02 in   Overcast
8:53 PM 46.9°F 43.0°F 86% 29.75 in 10.0 miles South 13.8 mph 23.0 mph 0.02 in   Overcast
9:04 PM 46.4°F 42.8°F 87% 29.74 in 10.0 miles South 18.4 mph 24.2 mph N/A   Overcast
9:53 PM 46.9°F 43.0°F 86% 29.77 in 10.0 miles South 19.6 mph 24.2 mph 0.02 in Rain Light Rain
10:53 PM 46.0°F 39.9°F 79% 29.79 in 10.0 miles SSW 15.0 mph 24.2 mph 0.00 in Rain Light Rain
11:39 PM 46.4°F 42.8°F 87% 29.80 in 10.0 miles South 11.5 mph - 0.00 in   Overcast
11:53 PM 46.0°F 43.0°F 89% 29.81 in 10.0 miles South 11.5 mph - 0.00 in   Overcast
Moon Phase
Dec. 02 Dec. 06 Dec. 13 Dec. 20 Dec. 28
Sunrise:07:38 AM (PST) Moon Rise:08:21 PM (PST)12/2
Sunset:04:21 PM (PST) Moon Set:10:24 AM (PST)12/2

Copyright © 2014 The Weather Underground, Inc.